Погода в Алешкине

Россия / Ульяновская область     53°29′18″N   48°08′14″E
темп.,
°C
ветер,
м/с
пор.,
м/с
влажн.,
%
обл.,
%
осадки,
мм/ч
давл.,
гПа
погр.,
м
13 августа, сб
сб1301:00+17сз11770 0.0 102211
04:00+16сз22810 0.0 102211
07:00+18сз12764 0.0 102365
10:00+23ссз33571 0.0 1022713
13:00+26ссз33401 0.0 10211443
16:00+27ссз33360 0.0 10201650
19:00+24ссв23530 0.0 102063
22:00+19ссв22630 0.0 102011
14 августа, вс
вс1401:00+17ссв22740 0.0 102013
04:00+16ссв22839 0.0 102012
07:00+18ссв227711 0.0 102179
10:00+23всв44540 0.0 1021777
13:00+26всв55440 0.0 10201518
16:00+26всв55405 0.0 10201568
19:00+23св365244 0.0 1019149
22:00+18св3365100 0.0 102050
15 августа, пн
пн1501:00+17св226977 0.0 102123
04:00+15св117452 0.0 102111
07:00+16св23715 0.0 1022110
10:00+22всв46475 0.0 1022877
13:00+24св56385 0.0 10221553
16:00+25св56355 0.0 10211667
19:00+22св37460 0.0 1021188
22:00+17св311570 0.0 1022183
16 августа, вт
вт1601:00+15св311671 0.0 1023197
04:00+14св38690 0.0 1024132
07:00+16всв310640 0.0 1025238
10:00+22всв68435 0.0 1024852
13:00+26всв673445 0.0 10241760
16:00+27всв673347 0.0 10232013
19:00+23св484624 0.0 1023217
22:00+18св36615 0.0 102385
17 августа, ср
ср1701:00+16всв39685 0.0 1024152
04:00+15всв237339 0.0 102443
07:00+16всв2865100 0.0 1024231
10:00+22в6944100 0.0 1023747
13:00+25в6833100 0.0 10221459
16:00+27в6728100 0.0 10211662
19:00+24всв3741100 0.0 1020159
22:00+20св3947100 0.0 1020150